Weather in Stepantsminda

Georgia     42°39′23″N   44°38′35″E
temp.,
°C
wind,
m/s
gust,
m/s
humid.,
%
clouds,
%
prec.,
mm/h
press.,
hPa
HPBL,
m
24 october, sun
sun2401:000ssw32660 0.0 102218
04:00−2ssw21810 0.0 102317
07:00−2sw119234 0.0 102420
10:00+3n11807 0.0 1020316
13:00+5ene127391 0.0 1018527
16:00+4s248147 0.0 1016327
19:000s46825 0.0 1019106
22:00−1ssw577660 0.0 1019111
25 october, mon
mon2501:00−2s6871100 0.0 1019123
04:00−3ssw327284 0.0 102036
07:00−5sw118029 0.0 102311
10:00−3n2193100 0.2 1022285
13:00−3n3298100 0.6 1023202
16:00−5n3397100 2.1 1026219
19:00−7n3398100 2.3 1030217
22:00−7n2397100 3.9 1031223
26 october, tue
tue2601:00−7n2398100 2.0 1031203
04:00−9nne129899 2.6 103346
07:00−8nnw139582 0.4 1033112
10:00−5nnw228215 0.4 1031300
13:00−2n22805 0.0 1028473
16:00−2n218632 0.0 1027346
19:00−7ssw329213 0.0 103335
22:00−8ssw328722 0.0 103422
27 october, wed
wed2701:00−8ssw43620 0.0 103323
04:00−7ssw42570 0.0 103222
07:00−7ssw43580 0.0 103224
10:00+1s23630 0.0 102590
13:00+3s23650 0.0 1023274
16:00+2s34740 0.0 1022197
19:00−4ssw55771 0.0 102849
22:00−4ssw55640 0.0 102754
28 october, thu
thu2801:00−4ssw66600 0.0 102656
04:00−4ssw54560 0.0 102641
07:00−4ssw42520 0.0 102522
10:00+3wnw11520 0.0 1020145
13:00+4n11621 0.0 1019464
16:00+3nne11761 0.0 1019238
19:00−3ssw22855 0.0 102515
22:00−4ssw227698 0.0 102517